This is the latest recevied weather packets stored in our database for station/object KG4ZVW. If no packets are shown the sender has not sent any weather packets the latest 10 day(s).
| Time | Temp. | Humidity | Pressure | Rain* | Wind** | Luminosity | Snow |
|---|---|---|---|---|---|---|---|
| 1778167207 | 30° C | 63% | 1015.5 hPa | 0 mm | - | 807 W/m² | - |
| 1778167105 | 30° C | 63% | 1015.5 hPa | 0 mm | - | 807 W/m² | - |
| 1778166800 | 30° C | 64% | 1015.5 hPa | 0 mm | - | 798 W/m² | - |
| 1778166511 | 29.44° C | 66% | 1015.5 hPa | 0 mm | - | 786 W/m² | - |
| 1778166206 | 29.44° C | 65% | 1015.5 hPa | 0 mm | - | 777 W/m² | - |
| 1778165901 | 29.44° C | 67% | 1015.5 hPa | 0 mm | - | 765 W/m² | - |
| 1778165596 | 29.44° C | 67% | 1015.6 hPa | 0 mm | - | 752 W/m² | - |
| 1778165315 | 29.44° C | 68% | 1015.6 hPa | 0 mm | - | 744 W/m² | - |
| 1778165010 | 28.89° C | 68% | 1015.6 hPa | 0 mm | - | 724 W/m² | - |
| 1778164707 | 28.89° C | 70% | 1015.6 hPa | 0 mm | - | 717 W/m² | - |
| 1778164402 | 28.89° C | 69% | 1015.6 hPa | 0 mm | - | 703 W/m² | - |
| 1778164100 | 28.33° C | 69% | 1015.6 hPa | 0 mm | - | 689 W/m² | - |
| 1778163797 | 28.33° C | 68% | 1015.6 hPa | 0 mm | - | 677 W/m² | - |
| 1778163496 | 28.89° C | 68% | 1015.6 hPa | 0 mm | - | 661 W/m² | - |
| 1778163214 | 28.33° C | 69% | 1015.6 hPa | 0 mm | - | 649 W/m² | - |
| 1778162908 | 28.33° C | 69% | 1015.6 hPa | 0 mm | - | 635 W/m² | - |
| 1778162603 | 28.33° C | 69% | 1015.6 hPa | 0 mm | - | 619 W/m² | - |
| 1778162317 | 28.33° C | 69% | 1015.6 hPa | 0 mm | - | 606 W/m² | - |
| 1778162013 | 28.33° C | 68% | 1015.5 hPa | 0 mm | - | 591 W/m² | - |
| 1778161707 | 28.33° C | 68% | 1015.5 hPa | 0 mm | - | 577 W/m² | - |
| 1778161404 | 27.78° C | 69% | 1015.5 hPa | 0 mm | - | 561 W/m² | - |
| 1778161100 | 27.78° C | 71% | 1015.6 hPa | 0 mm | - | 543 W/m² | - |
| 1778160816 | 27.22° C | 71% | 1015.6 hPa | 0 mm | - | 527 W/m² | - |
| 1778160511 | 27.22° C | 72% | 1015.6 hPa | 0 mm | - | 513 W/m² | - |
| 1778160206 | 27.22° C | 73% | 1015.6 hPa | 0 mm | - | 499 W/m² | - |
* Rain latest hour (hover to see other rain measurements)
** Current wind speed in m/s (hover to see current wind gust speed)